Change the Weather History Date:

Tuesday, May 22, 2012

  Actual Average Record
Temperature  
Mean Temperature 55 °F 60 °F  
Max Temperature 59 °F 69 °F 95 °F (2001)
Min Temperature 51 °F 50 °F 33 °F (1960)
Degree Days  
Heating Degree Days 10 6  
Month to date heating degree days 173 175  
Since 1 July heating degree days 4226 4138  
Cooling Degree Days 0 1  
Month to date cooling degree days 11 3  
Year to date cooling degree days 16 4  
Growing Degree Days 5 (Base 50)    
Moisture  
Dew Point 46 °F    
Average Humidity 72    
Maximum Humidity 89    
Minimum Humidity 55    
Precipitation  
Precipitation 0.30 in 0.08 in 1.19 in (2013)
Month to date precipitation 1.84 1.71  
Year to date precipitation 22.63 16.66  
Snow  
Snow 0.00 in - - ()
Month to date snowfall 0.0  
Snow Depth 0.00 in    
Sea Level Pressure  
Sea Level Pressure 30.00 in    
Wind  
Wind Speed 12 mph (SSW)    
Max Wind Speed 26 mph    
Max Gust Speed 32 mph    
Visibility 9 miles    
Events Rain    
T = Trace of Precipitation, MM = Missing Value Source: NWS Daily Summary

Daily Weather History Graph

Daily Weather History Graph

Search for Another Location

Airport or City:

Trip Planner

Search our weather history database for the weather conditions in past years. The results will help you decide how hot, cold, wet, or windy it might be!

Date:

Astronomy

May. 22, 2012 Rise Set
Actual Time 5:31 AM PDT 8:43 PM PDT
Civil Twilight 4:55 AM PDT 9:19 PM PDT
Nautical Twilight 4:09 AM PDT 10:05 PM PDT
Astronomical Twilight 3:12 AM PDT 11:03 PM PDT
Moon 6:45 AM PDT (5/22) 10:26 PM PDT (5/22)
Length of Visible Light 16h 23m
Length of Day
15h 11m
Waxing Crescent, 3% of the Moon is Illuminated
May 22
Waxing Crescent
May 28
First Quarter
Jun 4
Full
Jun 11
Last Quarter
Jun 19
New

Hourly Weather History & Observations

Time (PDT) Temp. Dew Point Humidity Pressure Visibility Wind Dir Wind Speed Gust Speed Precip Events Conditions
12:53 AM 54.0 °F 46.9 °F 77% 30.00 in 10.0 mi SSW 6.9 mph - N/A   Overcast
1:53 AM 54.0 °F 46.0 °F 75% 30.00 in 10.0 mi SSW 4.6 mph - N/A   Overcast
2:53 AM 53.1 °F 44.1 °F 71% 30.00 in 10.0 mi SW 8.1 mph - N/A   Overcast
3:53 AM 53.1 °F 44.1 °F 71% 30.00 in 10.0 mi South 6.9 mph - N/A   Overcast
4:53 AM 52.0 °F 46.0 °F 80% 30.01 in 9.0 mi SSW 8.1 mph - 0.00 in Rain Light Rain
5:53 AM 52.0 °F 46.0 °F 80% 30.01 in 10.0 mi South 5.8 mph - 0.01 in   Overcast
6:45 AM 51.8 °F 46.4 °F 82% 30.01 in 10.0 mi South 6.9 mph - N/A   Overcast
6:53 AM 52.0 °F 46.0 °F 80% 30.02 in 10.0 mi SSW 6.9 mph - N/A   Overcast
7:53 AM 52.0 °F 46.0 °F 80% 30.01 in 10.0 mi South 11.5 mph - 0.00 in Rain Light Rain
8:53 AM 52.0 °F 46.9 °F 83% 30.01 in 8.0 mi South 8.1 mph - 0.02 in Rain Light Rain
9:53 AM 52.0 °F 46.9 °F 83% 30.00 in 9.0 mi South 11.5 mph - 0.04 in Rain Light Rain
10:53 AM 52.0 °F 46.9 °F 83% 29.99 in 7.0 mi South 11.5 mph - 0.08 in Rain Light Rain
11:19 AM 51.8 °F 46.4 °F 82% 29.98 in 10.0 mi South 10.4 mph - 0.00 in Rain Light Rain
11:53 AM 52.0 °F 48.0 °F 86% 29.97 in 10.0 mi South 10.4 mph - 0.02 in Rain Light Rain
12:53 PM 54.0 °F 48.0 °F 80% 29.95 in 10.0 mi South 13.8 mph - 0.01 in Rain Light Rain
1:53 PM 55.0 °F 48.9 °F 80% 29.94 in 9.0 mi South 15.0 mph 24.2 mph 0.01 in Rain Light Rain
2:40 PM 53.6 °F 50.0 °F 88% 29.95 in 2.5 mi SSW 13.8 mph - 0.07 in Rain Rain
2:53 PM 54.0 °F 50.0 °F 86% 29.95 in 2.5 mi South 16.1 mph 24.2 mph 0.10 in Rain Rain
2:59 PM 53.6 °F 50.0 °F 88% 29.95 in 6.0 mi SSW 15.0 mph 24.2 mph 0.00 in Rain Light Rain
3:06 PM 55.4 °F 51.8 °F 88% 29.95 in 10.0 mi SSW 13.8 mph 19.6 mph 0.01 in Rain Light Rain
3:53 PM 57.9 °F 48.9 °F 72% 29.96 in 10.0 mi SSW 19.6 mph 26.5 mph 0.01 in   Scattered Clouds
4:53 PM 57.9 °F 45.0 °F 62% 29.99 in 10.0 mi SW 15.0 mph - N/A   Mostly Cloudy
5:53 PM 57.0 °F 41.0 °F 55% 30.02 in 10.0 mi SW 17.3 mph 31.1 mph N/A   Mostly Cloudy
6:53 PM 55.0 °F 41.0 °F 59% 30.04 in 10.0 mi WSW 21.9 mph 28.8 mph N/A   Mostly Cloudy
7:53 PM 54.0 °F 42.1 °F 64% 30.06 in 10.0 mi SW 16.1 mph 25.3 mph N/A   Mostly Cloudy
8:53 PM 53.1 °F 42.1 °F 66% 30.06 in 10.0 mi SW 13.8 mph 26.5 mph N/A   Overcast
9:53 PM 52.0 °F 42.1 °F 69% 30.08 in 10.0 mi SSW 15.0 mph 20.7 mph N/A   Overcast
10:53 PM 52.0 °F 43.0 °F 71% 30.08 in 10.0 mi SSW 13.8 mph - N/A   Overcast
11:53 PM 51.1 °F 43.0 °F 74% 30.08 in 10.0 mi SSW 17.3 mph - N/A   Overcast